CZ-4 DEB, 26155

Orbit data source: Space-Track

CZ-4 DEB, 26155 is space debris in SSO originally from a launch on Thu, 14 Oct 1999 UTC launched from the Taiyaun Space Center, China (TSC). Debris objects in space refer to the collection of defunct objects orbiting the Earth. Examples of debris include non-operational satellites, rocket bodies, and fragments generated from explosions, collisions, or faulty payload assembly.

Loading next visibility...
Identifier
26155, 1999-057AR
Orbit
SSO
Country
Flag of CNCN / PRC
Related business
Manufacturer
Unknown
Mission
Spacecraft
Bus & Motor
Unknown
Mass
Unknown
Launch date (UTC)
1999-10-14 (26 years ago)
Launch vehicle
Unknown
Launch site
Taiyaun Space Center, China (TSC)
Object type
Payload
Rocket body
Debris
Shape & HBR
Unknown shape, 0.1 m
Radar Cross Section
Small (<0.1 m²)

Expand to show TLE details & history
Last TLE update: 11 hours ago

TLE from 11 hours ago
0 CZ-4 DEB
1 26155U 99057AR  26036.76185389  .00017531  00000-0  30781-2 0  9991
2 26155  98.5540  97.3355 0123066 181.1221 303.0854 14.62868940350186
Epoch: 2026-02-05T18:17Z
TLE epoch observation values (Epoch: 2026-02-05T18:17:04.176Z)
Latitude
56.11834°
Longitude
-119.96889°
Altitude
646.576 km
Speed
7.565 km/s
True Right ascension
19h 20m 49s
True Declination
55° 57' 23"
Sunlit
Object was in daylight at epoch
Visualization orbit readout
Latitude
Unknown
Longitude
Unknown
Altitude
Unknown
Speed
Unknown
Apparent Right ascension
Unknown
Apparent Declination
Unknown
Sunlit
N/A
Visualization observer readout
Local Sidereal Time
07:38:44
Azimuth
Unknown
Elevation
Unknown
Doppler factor
Unknown
Orbital elements
Apogee altitude
767.893 km
Perigee altitude
594.145 km
Semi-major axis
7,059.156 km
Eccentricity
0.01231
Inclination
98.554°
RAAN
97.3355°
Arg. of periapsis
181.1221°
True anomaly
301.89391°
Mean anomaly
303.0854°
Eccentric anomaly
302.49065°
Mean motion
3.65943 °/min
Orbital period
98.38 mins
BSTAR
0.0030781
Loading maneuver chart data...
Computing Atmospheric mass density...
Loading historical data...
Loading historical data...
Loading historical data...
Loading historical data...
Loading historical data...
Loading historical data...
Loading historical data...

Documentation

Showing up to 5 results
|